Wind_Speed
29 28 28 27 27 26 25 24 23 23 23 22 21 21 21 22 25 24 21 23 25 26 28 29 30 29 30 32 33 32 31 32 35 34 33 34 35 36 35 33 34 35 34 34 33 33 35 33 32 33 31 31 35 34 30 29 31 30 30 33 33 29 29 30 30 30 30 30 31 31 29 29 30 30 31 31 30 31 31 31 31 32 30 30 31 31 32
29 29 28 28 28 27 27 26 25 24 24 24 23 22 21 21 22 23 22 23 24 25 26 28 29 29 31 33 33 34 34 33 34 34 35 36 36 37 37 36 38 37 37 37 35 36 38 37 35 35 35 37 37 34 32 32 34 34 33 34 34 31 30 33 33 33 32 31 30 31 31 31 32 32 32 33 33 32 32 31 33 34 33 33 34 34 34
30 29 29 28 28 28 28 27 26 25 25 25 25 25 23 22 22 22 22 23 24 25 25 25 26 29 30 30 31 34 34 34 34 34 36 36 36 37 37 38 39 38 38 39 37 38 40 38 38 38 39 40 39 36 35 35 37 37 35 35 36 35 34 35 35 34 34 32 28 27 27 29 32 31 31 34 34 31 30 32 34 35 34 35 38 38 36
30 30 30 30 29 29 28 28 27 26 25 25 26 26 26 25 25 23 22 22 24 26 26 25 27 29 28 27 30 33 32 33 33 33 36 37 35 36 37 38 38 37 38 40 38 38 40 39 39 40 41 41 41 39 37 38 40 39 37 37 38 38 37 37 38 38 37 34 30 30 30 32 34 33 33 35 34 32 33 36 37 36 36 37 38 37 36
27 28 29 29 30 29 29 29 29 27 26 26 26 26 26 27 27 26 25 24 25 26 25 26 28 29 28 28 31 31 31 34 34 31 35 36 33 34 36 36 37 36 37 38 37 37 38 39 39 40 40 40 42 41 38 39 40 39 38 39 39 39 40 39 39 39 40 39 37 37 37 38 40 41 39 37 38 38 38 37 36 37 40 40 37 36 37
25 25 26 26 27 27 28 28 29 29 28 27 27 27 26 27 27 27 27 27 28 28 25 25 27 28 27 30 32 30 31 35 35 32 33 34 33 34 35 35 35 36 36 37 37 36 37 38 37 37 37 38 40 41 39 40 40 39 39 41 39 39 40 39 39 38 38 38 39 39 40 42 44 44 43 41 42 43 42 40 37 36 38 39 38 39 40
26 26 26 25 25 25 25 26 26 27 28 28 28 28 28 28 28 27 28 29 30 30 28 28 28 28 28 30 30 29 31 33 34 32 31 32 33 33 34 34 35 36 36 36 36 34 34 35 33 32 33 34 35 36 34 35 36 36 38 39 39 39 39 39 39 39 39 38 39 39 41 43 45 46 45 44 43 44 44 43 40 37 35 36 37 38 39
29 28 27 27 26 26 25 25 25 25 26 26 27 27 28 28 29 28 29 29 29 30 30 30 30 30 30 31 31 30 30 31 32 31 30 31 32 31 31 32 33 33 33 34 35 34 33 34 33 32 32 32 32 32 31 32 32 32 33 34 34 35 36 37 38 39 41 41 40 40 41 43 45 45 45 45 44 44 44 44 42 40 38 38 39 40 40
31 31 30 29 28 27 26 26 25 24 24 24 24 25 26 26 27 28 29 29 29 30 30 30 31 33 33 33 33 32 33 33 32 32 31 32 32 31 30 32 32 29 30 34 35 33 33 35 35 35 34 34 33 33 34 35 33 32 33 33 33 33 34 35 36 38 40 39 38 40 43 45 46 45 46 46 45 43 42 42 43 42 42 41 41 42 42
31 31 31 30 30 29 28 27 27 26 25 25 24 24 24 24 24 25 26 27 27 29 29 29 31 33 34 34 34 35 36 36 36 35 35 36 36 35 33 34 34 31 32 35 34 32 33 35 35 35 36 37 37 37 38 39 38 36 36 36 36 35 34 35 36 38 40 39 38 42 45 46 45 44 43 43 44 43 43 44 44 43 43 43 44 44 43
28 28 28 28 29 29 28 28 27 27 26 26 25 25 25 24 24 23 24 25 25 26 27 28 29 31 32 33 34 35 36 37 36 37 38 39 38 37 37 37 37 38 39 39 36 35 36 37 37 38 39 39 40 40 41 41 41 40 39 38 37 36 36 36 36 37 39 38 39 43 45 45 43 42 42 41 41 42 42 42 42 42 43 43 44 43 42
25 23 23 23 23 24 25 25 26 26 26 26 26 26 26 26 26 25 25 25 25 25 26 26 27 28 30 31 32 33 34 35 35 36 37 39 38 37 38 38 39 40 40 40 39 39 39 39 39 40 40 41 40 40 41 41 40 39 39 38 35 35 38 38 36 36 38 39 40 44 46 44 40 39 42 43 41 40 41 41 41 41 41 41 41 40 40
24 21 20 19 19 19 19 20 21 22 23 24 24 25 25 26 26 27 27 26 26 26 26 26 27 27 28 29 30 30 31 32 33 34 35 36 36 36 36 37 38 38 38 38 39 39 38 39 39 39 39 38 38 38 39 39 38 38 38 35 33 33 35 36 36 37 39 40 43 46 46 43 40 40 44 45 43 42 43 43 43 44 44 43 43 44 45
23 21 19 18 18 17 16 16 16 17 18 20 21 22 23 24 25 26 27 27 27 28 28 28 28 28 28 29 29 29 30 30 31 32 32 33 33 34 34 34 35 35 35 35 36 36 36 36 36 37 36 35 35 36 35 35 36 37 37 36 36 38 37 37 38 40 41 42 44 46 46 45 44 44 44 44 42 43 44 44 45 47 47 46 47 47 48
22 20 19 18 17 17 16 15 14 13 14 15 16 17 18 20 21 22 24 25 26 28 28 29 30 30 30 31 31 31 31 31 31 32 32 32 33 33 33 33 34 34 34 34 35 35 35 35 36 36 35 35 35 34 34 35 37 39 39 38 39 40 39 38 40 41 42 43 44 45 46 47 46 44 41 39 39 41 42 40 41 44 46 47 46 46 46
22 21 19 17 17 16 16 16 14 13 12 12 12 13 14 15 16 17 19 21 22 24 25 27 28 29 30 32 32 33 33 33 33 33 34 35 34 34 34 34 34 35 35 35 36 36 36 36 36 36 36 35 34 33 35 37 39 42 44 43 41 39 37 36 37 38 39 41 42 43 45 45 43 40 38 37 38 39 37 37 39 42 44 45 45 44 44
23 21 19 18 17 16 16 16 15 14 13 12 11 11 11 11 12 13 14 15 16 17 18 20 23 24 27 28 30 31 32 33 34 34 35 37 37 35 35 35 36 36 36 36 36 37 37 38 37 37 36 34 34 36 37 38 40 43 45 45 42 38 35 34 35 37 38 40 40 41 43 44 42 39 38 37 36 36 36 37 40 41 41 42 44 44 44
23 21 20 18 17 17 16 16 15 15 14 13 12 11 11 10 10 11 11 12 13 14 15 16 18 19 21 23 24 26 28 29 31 31 33 36 37 36 35 35 36 36 36 36 37 37 38 38 37 37 36 33 34 36 37 37 38 39 40 41 38 33 30 31 33 34 33 33 34 34 37 42 42 40 40 39 37 37 37 39 41 41 41 43 45 44 43
22 21 20 19 18 18 17 16 16 15 14 13 12 12 12 12 12 12 13 13 14 15 16 17 18 19 20 21 22 23 23 25 26 27 29 31 32 32 32 33 33 33 33 33 33 34 35 35 32 30 29 28 29 31 32 33 33 33 33 33 30 27 27 29 30 30 28 29 32 34 36 40 40 39 40 40 38 39 40 41 41 41 41 42 43 43 43
21 20 20 20 20 20 19 19 18 17 16 15 15 14 15 15 15 15 16 16 17 17 18 19 21 22 22 22 22 23 23 24 24 25 26 27 26 27 27 27 28 29 29 28 28 29 30 30 27 23 24 26 28 30 32 32 32 31 30 28 26 27 31 31 31 31 30 30 33 36 38 40 40 39 40 40 39 41 43 43 42 41 41 42 42 42 43
20 20 20 20 21 21 21 21 21 20 18 18 17 17 17 17 17 16 16 16 17 19 20 21 22 22 22 22 22 23 23 24 24 24 25 25 25 25 25 24 24 25 25 25 26 27 27 26 24 23 24 26 27 29 32 32 31 31 31 30 30 31 33 32 31 32 33 32 32 34 36 38 38 39 40 41 42 43 43 42 41 41 41 41 42 43 44
20 20 20 21 22 22 22 22 22 22 21 19 18 17 16 16 15 15 15 17 19 21 21 20 20 19 19 19 20 21 21 22 22 23 23 24 24 24 24 24 24 23 23 23 24 25 23 23 24 25 25 26 27 28 30 31 31 31 32 32 31 31 31 32 32 34 35 35 33 34 36 37 38 38 40 41 43 43 42 40 40 41 41 42 43 45 46
21 21 21 22 22 22 22 23 23 23 22 20 18 17 15 14 14 15 17 19 20 19 18 17 17 17 17 17 17 18 18 19 19 20 21 21 22 22 22 23 22 22 22 22 23 23 23 23 24 25 25 26 28 28 29 29 30 31 32 31 30 30 32 33 34 35 36 37 37 38 38 40 40 40 41 42 42 42 41 41 42 43 43 43 44 46 46
22 22 22 22 23 23 23 23 23 22 22 21 19 17 16 15 15 16 19 20 18 16 15 15 15 15 15 14 14 14 15 15 16 17 18 19 19 19 19 20 21 21 21 21 21 23 23 23 24 24 24 26 27 27 28 28 28 29 29 29 31 32 32 33 34 35 35 37 38 39 40 41 41 41 41 41 42 42 43 44 45 45 46 46 46 46 46
23 23 23 23 23 24 24 23 23 22 22 22 21 19 17 16 16 18 19 18 15 14 14 14 14 14 14 13 12 11 11 11 12 13 14 15 16 16 16 17 18 19 20 19 20 21 21 22 22 23 24 24 25 26 27 27 27 28 27 27 30 33 32 32 33 35 35 36 36 38 41 42 42 40 40 40 42 44 45 46 46 46 47 48 48 47 47
24 24 24 24 24 24 24 24 23 23 23 23 22 20 18 16 16 18 19 17 14 13 14 13 13 13 13 12 11 10 9 9 9 9 10 11 12 13 14 14 15 16 17 17 18 18 19 20 20 21 22 22 23 25 27 26 26 28 28 28 30 32 31 32 34 35 35 35 35 38 40 40 40 40 40 40 42 43 44 46 46 46 46 47 48 48 48
24 25 25 25 25 25 25 24 24 24 24 24 23 21 18 17 17 19 19 16 13 13 13 13 13 12 12 11 11 9 9 8 8 7 7 8 9 10 10 11 12 13 13 14 15 16 16 18 20 20 21 22 23 24 26 26 27 28 28 28 31 31 31 33 36 36 34 33 33 37 39 39 37 38 38 39 40 41 42 44 45 45 46 48 48 48 48
24 25 25 25 25 25 25 25 25 25 25 25 24 23 21 19 18 19 19 17 14 13 13 13 13 12 11 11 10 10 9 9 8 8 7 7 8 9 9 10 11 12 12 14 15 16 17 19 20 21 22 23 24 25 26 27 28 28 27 28 31 32 32 34 36 36 35 35 35 38 40 39 38 38 38 38 39 40 42 42 43 44 45 46 47 47 47
24 24 25 25 25 25 25 25 25 25 25 25 24 24 23 21 20 19 19 18 16 14 13 13 13 11 11 10 10 10 10 10 10 9 9 9 9 9 10 11 12 13 14 15 16 17 19 20 20 22 23 24 25 25 26 27 27 25 25 28 30 32 33 34 35 36 37 37 38 38 38 38 38 38 38 38 38 39 39 40 41 42 42 42 41 42 43
23 24 24 25 25 25 25 25 25 25 25 24 24 23 23 22 22 21 20 19 17 16 14 13 12 11 10 10 10 10 10 10 11 11 11 11 11 11 12 13 14 15 16 16 17 18 20 21 21 21 23 25 26 26 26 27 26 24 25 27 28 28 29 32 34 36 35 35 36 37 36 36 36 35 36 36 35 35 35 35 36 35 34 33 33 34 36
23 23 24 24 24 25 25 25 25 25 25 24 24 24 24 24 24 23 21 20 19 17 15 14 13 12 11 10 10 10 10 11 11 11 12 12 12 13 13 14 15 16 17 18 18 19 20 22 22 22 22 24 26 26 27 27 27 25 26 28 29 28 29 30 33 34 33 32 33 34 33 31 31 30 29 28 28 29 29 27 25 24 24 25 26 28 29
25 24 24 24 24 25 25 25 25 25 25 25 25 25 25 25 25 24 23 22 20 18 17 16 14 14 13 11 11 11 11 11 11 11 12 12 13 13 13 14 16 17 17 17 18 20 21 21 21 22 22 23 25 27 27 27 28 27 27 28 29 28 27 28 29 30 30 31 32 30 26 23 23 22 20 19 20 22 21 18 16 16 17 19 20 21 22
25 25 25 25 25 25 25 25 25 25 25 25 24 24 24 24 24 24 24 23 21 20 18 17 16 15 14 13 13 13 12 12 12 12 12 12 13 14 14 14 15 17 18 18 18 20 22 22 22 23 23 23 25 27 27 27 28 26 23 23 25 26 26 27 28 28 29 28 26 21 16 14 14 14 13 14 16 17 16 13 12 13 14 15 16 16 16
25 25 26 26 26 25 25 25 25 25 25 25 24 24 24 24 24 24 24 23 22 21 19 18 18 17 16 15 14 14 14 13 14 14 14 14 14 15 15 15 16 17 18 18 19 20 21 22 23 24 24 23 24 27 27 26 25 23 20 21 24 26 26 25 25 24 22 19 15 12 9 9 10 11 11 13 15 15 13 12 11 12 13 14 15 15 14
25 26 26 26 26 26 26 25 25 25 25 24 24 24 24 24 24 24 24 23 23 21 20 20 19 18 18 17 16 16 15 14 14 14 15 15 15 16 17 17 17 17 18 19 20 21 21 22 23 24 25 25 26 27 25 21 20 21 21 21 22 22 21 20 17 16 14 11 9 8 7 7 7 7 9 11 13 13 12 12 12 12 13 14 14 13 13
25 26 26 26 26 26 26 25 25 25 24 24 24 24 24 23 23 23 23 23 23 22 21 21 19 18 18 18 18 17 17 16 16 16 16 16 16 17 18 19 19 19 19 20 21 22 22 22 23 24 25 26 27 27 22 17 18 21 21 20 19 19 17 14 11 10 11 9 8 7 7 6 6 6 8 10 11 11 12 12 12 12 11 11 11 11 11
25 26 26 27 27 26 26 25 25 25 25 25 25 24 24 23 23 23 23 23 23 22 22 22 21 19 19 18 17 17 17 18 18 18 17 17 18 18 19 20 20 21 21 22 22 22 23 23 24 25 26 26 26 24 20 17 18 19 18 16 16 15 13 11 9 8 9 9 9 8 7 7 7 7 8 10 11 11 11 12 11 9 8 8 9 10 10
25 25 26 27 27 27 27 27 27 26 26 25 25 24 24 23 23 23 23 23 22 22 22 21 21 20 19 19 18 18 17 18 18 19 18 18 19 19 20 20 20 21 22 22 22 23 24 24 24 26 26 25 23 20 18 17 18 17 14 13 13 12 11 10 9 7 7 8 9 8 7 8 9 9 8 9 10 10 10 9 8 6 6 7 8 8 8
26 26 26 27 28 28 29 29 28 28 27 26 25 24 24 23 23 23 23 23 22 22 22 22 21 20 20 20 19 19 18 18 19 19 20 19 19 19 20 21 21 21 22 23 22 23 24 25 25 26 26 25 22 19 16 16 15 12 10 10 9 9 9 9 7 5 6 7 8 9 9 10 11 10 9 9 9 9 8 7 5 4 5 6 6 6 6
26 27 27 28 28 29 29 29 29 28 28 27 26 25 24 24 23 24 24 23 22 22 22 22 22 21 21 21 21 20 20 20 19 20 20 20 19 20 20 21 21 21 22 23 23 23 24 25 25 25 25 25 22 18 14 12 10 8 7 7 7 7 7 5 4 5 6 7 8 9 10 10 10 10 8 8 8 7 6 5 4 3 4 4 4 5 6
26 27 27 28 28 28 28 29 29 28 28 28 27 26 25 25 24 24 24 24 23 23 22 22 22 22 22 22 22 21 21 20 20 20 20 20 20 21 21 21 21 21 22 23 23 23 24 25 25 25 26 24 20 15 11 8 6 5 6 6 6 5 4 4 4 5 7 8 9 9 9 9 8 7 6 6 5 5 4 3 2 2 2 3 3 5 5
27 28 28 28 28 28 29 29 29 28 28 29 29 28 27 26 25 24 24 24 24 23 23 22 22 22 22 22 22 22 22 21 20 20 20 20 21 21 21 21 21 21 21 22 23 23 23 25 25 26 26 23 17 11 7 5 4 5 6 6 5 5 5 5 6 5 6 8 8 7 6 5 4 3 3 3 3 2 2 1 1 1 1 2 3 4 4
29 29 29 29 29 29 29 29 29 29 28 29 29 29 29 28 26 25 25 24 24 23 22 22 22 22 22 21 22 22 22 22 21 21 21 21 21 21 21 22 22 21 22 22 22 22 23 24 24 25 25 21 13 8 5 4 4 5 5 5 5 5 5 6 6 5 5 5 4 4 3 2 1 2 3 3 2 2 1 0 1 1 2 2 3 4 3
31 31 30 30 30 31 31 30 30 30 29 29 29 30 30 29 28 27 26 26 25 25 24 23 23 23 23 22 22 22 22 22 21 21 21 22 21 21 21 21 21 21 22 22 22 22 23 24 24 25 24 18 10 6 5 4 4 4 3 2 3 4 4 5 4 4 3 2 2 3 2 1 2 3 5 5 4 2 0 1 1 2 2 2 3 3 5
33 32 32 31 31 31 31 31 31 31 30 29 29 29 30 30 30 29 28 27 26 26 26 25 24 24 23 23 22 22 23 23 23 22 22 22 22 22 22 22 21 21 22 22 22 22 23 23 24 24 23 17 8 6 6 5 5 3 2 2 2 3 3 4 4 3 2 2 3 4 3 3 4 6 6 6 4 0 2 1 1 2 2 1 2 4 7
34 34 34 33 32 32 32 32 32 32 31 30 29 29 29 29 29 29 29 28 27 26 26 26 25 25 24 24 23 23 22 22 23 23 23 23 22 22 22 22 22 21 21 22 22 22 22 23 23 23 22 15 8 8 9 7 6 4 3 2 2 2 4 5 5 5 5 5 6 5 5 4 5 6 6 4 1 4 4 2 2 2 1 2 3 6 7
35 35 35 35 34 33 32 32 33 33 33 32 31 30 29 29 28 29 29 29 28 27 26 26 26 25 24 24 24 24 24 23 22 23 23 23 23 22 22 22 22 21 21 21 21 21 22 22 22 22 21 15 8 10 11 8 7 6 5 4 3 2 4 4 4 4 5 6 6 6 5 5 5 4 2 1 4 6 4 2 1 2 3 4 6 7 8
35 35 36 36 36 35 33 32 33 34 34 33 31 30 29 29 29 28 29 29 29 28 27 26 26 26 25 24 23 23 24 24 23 23 23 23 23 22 22 22 22 21 21 21 21 21 21 22 22 21 21 16 9 11 13 11 8 8 6 5 4 3 2 2 2 2 3 4 5 5 5 5 4 2 1 4 5 5 5 5 5 6 6 6 7 7 7
36 36 36 37 37 36 35 33 32 33 35 35 33 31 30 29 29 29 29 29 29 29 27 26 26 26 26 26 24 23 23 24 24 23 23 23 23 22 22 22 22 22 21 21 21 20 20 21 21 20 20 17 10 12 15 13 11 9 8 6 6 5 4 3 3 2 2 2 2 3 3 3 2 2 4 7 7 7 7 8 8 8 6 6 6 6 6
36 36 36 37 37 37 37 35 33 33 34 35 35 33 31 30 30 29 29 29 29 29 28 27 26 25 25 26 25 24 24 23 23 24 24 23 23 22 22 22 22 22 21 21 20 20 20 20 20 20 19 17 12 12 16 16 13 11 10 8 7 7 7 6 4 3 3 2 2 2 2 2 2 3 6 8 10 9 9 9 8 7 4 3 3 3 3
37 36 36 37 37 38 37 36 35 34 34 35 35 35 33 32 32 31 30 30 30 30 29 28 27 26 26 25 25 24 24 23 23 23 24 24 23 23 22 22 22 22 21 21 20 20 19 19 20 19 18 17 13 12 16 18 16 14 12 10 9 9 9 8 7 5 4 3 2 3 2 1 2 4 6 9 9 8 8 8 7 5 3 1 1 1 2
38 37 37 37 37 38 38 37 36 35 35 35 35 35 34 33 32 32 30 30 30 30 30 29 28 28 27 26 26 25 25 24 23 23 23 24 23 23 22 22 22 22 21 20 20 20 18 18 18 18 18 17 14 12 15 19 19 16 15 13 11 9 10 11 10 8 5 3 2 3 3 2 2 4 6 7 8 7 7 6 5 4 3 2 1 1 2
Wind_Direction
280 280 280 280 280 279 278 277 278 279 280 280 276 272 267 263 263 264 260 256 253 251 249 249 249 249 250 250 250 250 250 251 253 254 251 249 248 248 247 246 247 248 248 249 250 252 253 253 253 256 257 255 258 262 263 263 264 263 262 263 262 262 264 263 260 259 257 257 262 263 261 261 260 258 258 259 257 257 259 259 259 257 257 259 261 263 265
279 279 279 279 279 279 278 276 275 274 275 276 276 275 272 267 265 264 260 257 256 252 250 249 249 248 248 250 252 252 251 250 252 254 254 252 251 250 250 250 249 249 250 250 251 253 255 254 254 256 258 258 259 262 264 264 265 263 261 264 264 264 264 263 262 262 262 262 265 267 267 266 264 261 260 257 255 255 256 257 259 258 256 257 259 260 263
279 278 278 278 278 278 277 276 274 273 272 272 272 272 272 269 266 264 260 258 257 254 252 251 251 251 249 250 252 253 253 252 251 253 254 253 253 253 253 252 251 252 253 253 252 253 255 257 257 256 258 260 260 261 263 263 263 263 263 264 264 262 262 263 263 263 263 264 263 262 263 264 265 266 264 261 258 257 256 255 255 255 254 254 255 256 258
280 278 277 277 276 276 276 275 274 273 272 271 270 269 268 268 266 265 263 259 257 256 253 251 249 250 251 250 251 253 255 255 252 252 255 254 253 255 255 254 254 254 254 255 254 254 256 257 258 258 259 261 262 262 262 263 262 263 263 262 262 262 261 261 262 262 262 261 257 255 255 257 259 260 262 265 266 262 258 254 254 255 254 252 252 253 256
285 283 280 278 276 274 273 273 272 271 270 270 270 268 267 266 265 265 263 260 258 256 254 253 251 253 254 253 252 252 253 256 254 251 254 256 256 256 257 257 256 256 255 256 255 255 256 257 257 258 259 261 262 261 261 262 262 262 261 260 260 261 260 260 261 262 262 261 259 258 257 257 259 259 258 261 263 262 261 259 257 257 256 254 252 250 252
293 289 286 282 280 276 274 272 270 269 268 267 267 267 267 266 265 264 262 260 259 258 256 255 255 255 254 253 254 253 252 255 257 254 254 257 257 256 257 258 258 258 257 257 257 256 257 257 257 258 259 260 262 263 263 261 260 260 260 260 259 260 261 261 261 261 261 262 262 261 260 258 259 260 259 259 260 262 264 264 259 257 259 260 257 253 251
295 292 289 286 284 281 278 274 272 270 268 266 265 264 264 264 264 263 262 261 260 260 258 255 255 255 254 254 255 254 253 254 257 256 255 257 257 257 258 259 259 259 258 258 258 257 256 255 254 255 256 256 257 260 262 261 260 259 260 261 262 261 260 260 260 259 258 259 259 259 260 260 260 260 261 261 261 261 263 264 262 260 259 260 260 258 255
292 290 288 286 284 282 280 278 275 272 270 268 266 264 263 262 262 261 261 261 260 260 258 256 255 255 254 253 253 253 253 254 256 256 255 255 256 256 258 259 258 259 259 258 257 255 254 253 252 251 252 253 254 256 258 259 261 262 263 264 264 262 261 261 261 260 258 257 257 257 259 259 260 261 262 262 261 261 263 264 265 263 261 258 258 258 256
291 288 285 283 282 280 279 277 276 273 271 269 267 265 264 262 261 260 260 260 259 259 258 256 255 254 253 253 254 253 253 253 254 255 254 254 255 255 255 257 259 259 258 256 255 255 255 255 255 254 254 254 255 256 257 258 261 264 265 266 266 265 264 263 262 261 260 260 260 261 260 259 259 261 263 264 264 263 263 264 263 263 262 259 258 259 259
296 291 286 282 280 279 277 276 274 272 270 269 267 266 265 263 262 261 260 260 259 258 257 256 254 254 254 254 255 254 254 254 254 255 255 255 255 256 254 255 257 256 255 255 255 255 256 256 257 258 257 257 257 258 259 260 260 262 264 265 267 268 267 265 264 264 265 264 263 262 262 262 263 264 265 266 265 264 263 263 263 263 263 262 261 261 262
308 300 293 288 283 280 278 276 275 273 271 268 266 265 264 263 262 261 260 260 260 258 258 256 255 256 256 256 255 254 255 255 255 255 256 256 256 256 256 255 254 253 255 259 260 259 258 258 258 258 259 260 260 260 261 262 262 261 261 262 264 266 265 264 265 267 269 269 266 264 264 264 266 267 266 264 264 264 264 263 263 263 263 263 263 262 261
326 317 308 300 293 287 282 279 277 274 272 270 268 265 263 262 262 261 260 260 260 259 259 258 257 257 257 257 256 256 256 256 256 255 256 257 257 256 256 255 255 255 257 260 262 261 260 260 260 260 260 261 261 262 262 262 262 262 262 262 262 262 263 263 263 265 267 268 267 267 268 268 269 268 266 266 266 267 266 265 264 263 263 263 263 262 261
338 333 326 319 311 302 294 288 282 278 274 272 270 268 266 263 262 261 260 260 260 259 259 259 258 258 258 257 257 257 257 257 257 256 256 257 257 256 256 256 257 257 258 259 260 260 261 261 261 261 261 262 262 262 262 263 263 262 261 261 260 260 263 266 266 265 266 266 266 268 271 272 270 268 268 269 270 269 268 267 266 265 264 263 262 262 263
340 337 333 330 325 320 313 305 297 290 284 278 274 272 269 266 264 263 261 260 261 260 259 260 259 258 258 258 258 258 258 257 257 257 257 257 257 257 257 257 258 258 259 259 259 260 260 261 261 261 262 263 263 263 264 264 263 262 262 263 263 265 267 268 268 268 268 268 268 270 272 272 272 271 273 273 273 271 270 270 268 267 266 265 264 265 265
343 339 334 331 328 327 325 321 316 309 301 293 286 281 277 273 269 267 265 263 262 262 261 261 261 261 260 260 259 259 259 259 259 259 258 258 258 258 257 257 258 258 259 259 260 261 261 261 262 263 263 264 265 267 266 265 265 265 265 267 269 271 271 270 270 270 269 269 269 270 271 271 272 273 274 274 273 272 272 271 269 268 267 267 267 267 266
349 346 342 338 333 330 329 328 327 324 318 310 302 294 289 284 279 276 273 270 268 267 266 265 264 264 263 262 262 262 261 261 261 261 261 259 258 259 259 259 259 259 260 261 261 262 263 263 263 264 265 266 267 267 266 266 268 270 270 270 271 272 271 269 268 267 267 267 268 269 270 270 271 271 271 270 269 269 269 268 268 268 269 269 268 266 265
354 353 351 347 343 339 337 336 334 332 328 321 314 306 300 296 292 288 285 282 280 279 277 274 271 269 268 266 265 264 264 264 263 263 264 262 261 261 262 262 262 262 262 262 263 263 264 265 265 266 267 268 268 267 266 268 271 273 274 275 274 272 268 265 263 262 264 267 268 270 272 270 268 267 267 266 265 265 266 266 266 267 267 267 266 266 265
357 357 357 355 352 349 345 342 339 336 333 329 323 317 312 307 303 299 296 294 291 289 289 285 282 279 276 274 271 269 268 266 266 266 266 265 264 264 264 265 265 264 264 264 265 265 265 266 267 268 268 267 267 267 267 268 269 271 274 275 274 272 266 261 261 262 265 267 268 266 267 268 268 266 263 263 263 264 265 265 266 267 265 265 265 265 264
356 359 0 1 1 358 355 352 348 344 340 335 330 324 319 315 311 306 301 299 295 293 292 290 288 286 284 281 278 275 272 270 269 267 267 267 267 266 267 266 265 265 265 265 266 265 265 266 266 267 266 263 261 261 261 261 263 265 267 268 269 266 261 257 258 259 258 259 259 258 259 264 266 265 264 264 264 263 263 263 265 265 264 264 264 264 263
355 357 359 1 2 1 359 356 354 349 344 338 332 327 323 318 314 309 305 303 300 298 297 295 293 290 287 283 280 276 273 271 269 268 268 268 268 268 267 266 265 265 265 265 264 263 264 265 262 259 257 256 257 258 258 259 261 261 260 261 259 256 257 258 258 257 255 254 256 258 260 263 265 265 266 265 262 261 261 262 263 264 264 265 265 264 263
356 355 356 358 359 359 358 355 352 348 342 336 330 326 323 319 317 314 312 310 308 305 303 300 297 293 289 284 279 276 272 270 268 267 267 268 267 267 267 267 267 267 266 265 265 264 264 263 260 255 255 256 258 261 262 263 263 263 262 261 258 258 259 259 257 256 256 256 257 259 260 261 262 263 263 263 262 262 262 262 263 264 265 265 264 262 261
357 355 354 354 355 355 355 353 352 349 344 338 333 330 328 326 324 323 321 318 315 311 307 304 301 298 294 288 282 277 273 270 268 267 266 266 265 265 266 267 268 268 267 267 267 267 265 262 261 260 260 259 259 261 264 266 266 266 265 264 262 262 263 260 257 256 258 258 258 258 260 261 262 263 264 265 266 266 266 266 265 264 263 263 264 263 262
359 356 353 352 351 351 351 351 351 350 348 344 339 335 334 332 330 327 326 323 320 317 315 313 311 307 302 296 289 282 276 272 269 267 265 264 264 264 265 267 267 267 268 268 269 270 269 267 267 267 266 265 264 265 266 267 267 267 268 268 266 264 263 263 262 262 263 264 263 262 262 264 264 265 267 268 270 271 272 271 269 266 264 263 263 264 264
359 356 353 351 350 349 350 350 349 349 350 349 345 339 335 333 332 331 330 329 327 326 326 324 322 319 315 308 301 292 284 276 271 268 266 265 264 264 264 265 267 268 269 269 270 271 272 272 273 272 270 270 271 270 270 270 270 270 270 271 270 267 266 266 266 265 264 265 266 266 266 266 266 266 268 270 271 271 270 268 267 267 267 267 266 266 266
1 359 357 355 353 352 352 353 352 352 352 352 349 344 338 335 335 336 336 336 334 334 334 334 332 331 329 324 318 309 298 288 278 272 269 268 267 267 266 267 268 269 271 271 272 273 274 274 275 274 274 274 275 274 274 275 275 274 274 272 271 271 271 270 269 268 267 266 266 266 266 268 269 269 269 268 267 266 267 267 267 267 268 269 269 269 268
3 3 2 1 0 360 360 0 359 358 357 356 354 351 347 343 342 342 342 341 341 340 339 338 339 339 339 339 337 330 320 309 297 286 280 276 274 273 271 270 270 271 273 275 275 275 276 276 275 275 276 276 276 276 277 278 277 277 277 276 274 275 275 273 271 271 271 271 269 267 266 267 269 269 268 266 266 266 267 268 269 269 269 269 270 269 269
4 5 5 5 5 5 5 6 5 4 3 2 0 359 356 352 349 348 348 345 343 343 343 341 341 342 343 344 344 342 337 330 321 311 302 294 287 284 281 280 279 279 280 281 281 281 280 280 280 280 279 279 279 279 280 282 281 280 280 278 276 276 275 274 274 274 274 271 269 269 271 271 270 269 269 269 269 269 269 269 269 270 270 270 270 270 271
3 3 4 4 4 5 6 7 7 7 8 7 6 4 3 359 354 352 352 350 345 343 345 345 343 342 342 342 342 342 340 336 332 327 321 313 306 301 297 294 292 291 290 289 289 289 287 285 286 287 286 285 284 283 283 284 284 283 281 279 277 277 276 276 277 277 276 273 271 271 273 274 274 273 272 271 271 272 272 272 271 271 270 271 272 272 273
0 1 1 1 2 3 4 5 6 7 8 8 8 8 6 3 359 356 355 354 350 345 344 346 346 343 340 337 335 335 334 332 330 327 322 317 312 307 303 301 298 297 296 294 293 293 292 291 292 292 290 289 287 286 286 285 284 282 280 279 279 279 279 278 277 277 277 277 276 275 275 276 276 276 276 275 274 274 273 273 273 272 273 273 274 274 273
357 358 358 359 359 0 2 3 4 5 5 6 7 7 6 6 4 1 358 356 354 348 344 345 345 343 339 334 331 330 329 326 324 322 319 317 313 309 306 304 302 300 299 298 298 297 295 295 295 293 291 291 291 290 289 287 285 281 279 279 279 278 278 278 278 279 279 279 278 279 279 279 280 280 279 279 278 276 275 274 275 276 276 275 274 273 272
358 357 356 356 357 358 359 0 1 2 3 3 4 4 5 5 5 5 2 359 357 353 348 344 343 342 341 337 331 327 324 320 318 316 312 310 308 306 305 304 303 302 301 301 301 300 297 297 299 298 296 294 293 292 291 290 287 282 278 277 277 276 277 279 280 281 281 280 280 282 284 284 283 281 279 277 276 275 276 278 279 279 277 275 275 275 275
3 1 359 357 356 356 356 357 358 360 0 1 1 2 3 3 3 4 4 2 0 357 352 347 343 341 341 338 331 325 321 316 313 310 307 306 305 304 304 303 303 302 301 303 303 302 301 302 303 302 299 296 293 293 294 293 291 287 283 281 281 280 279 279 278 280 281 282 284 286 286 281 277 275 273 270 271 275 280 283 281 277 275 277 281 282 281
2 2 2 1 359 357 355 355 356 357 358 358 359 0 0 1 1 2 3 3 2 360 356 352 348 343 340 337 332 327 325 320 316 313 310 308 307 306 306 306 307 306 305 307 309 308 308 308 307 305 303 300 298 298 299 298 296 292 287 283 281 279 278 279 281 283 284 286 289 289 280 262 259 265 269 268 271 276 281 280 275 272 276 281 284 284 283
359 359 360 360 359 358 357 356 355 355 355 356 357 358 358 358 359 360 1 2 2 1 358 356 352 347 342 338 332 328 326 324 320 318 316 312 311 310 311 312 312 311 311 314 316 315 313 311 310 310 309 306 304 303 302 299 294 289 283 282 281 280 282 286 288 288 288 288 286 283 268 247 247 257 261 263 267 272 276 278 276 276 277 278 280 282 284
355 355 356 356 356 356 356 356 355 355 354 354 354 355 355 356 356 357 358 359 359 360 358 356 353 350 346 341 337 332 329 326 322 319 317 315 314 314 315 316 317 317 318 321 321 319 316 315 314 314 313 310 308 306 303 297 288 282 281 285 286 286 288 291 289 287 288 284 276 274 272 262 256 260 262 264 267 273 278 282 282 281 280 280 283 287 289
353 354 354 354 354 353 353 353 353 354 353 353 353 353 353 353 353 354 355 356 356 357 357 355 353 351 347 343 339 334 330 328 327 325 322 319 318 318 319 320 322 322 323 323 322 320 319 319 319 317 315 313 311 308 302 292 285 285 286 288 289 290 290 289 281 277 281 281 278 278 280 276 274 278 279 276 275 277 281 284 285 285 285 287 290 294 294
350 351 353 354 354 353 351 350 351 352 353 352 351 350 350 351 350 350 352 353 353 354 354 354 353 351 347 343 339 334 331 329 328 327 324 321 319 321 322 322 323 324 324 325 326 324 323 323 322 319 318 316 313 309 301 291 288 292 292 289 288 288 288 286 281 276 276 280 283 283 283 284 288 289 286 283 283 284 286 287 286 286 288 291 295 296 294
345 348 350 351 351 352 352 352 351 350 350 349 349 349 348 348 347 347 348 349 350 351 352 352 352 350 347 344 340 336 332 329 326 325 324 322 320 321 322 323 325 325 325 327 328 326 324 324 324 322 321 319 314 308 301 295 295 297 294 288 283 281 284 290 291 281 272 277 285 288 290 292 293 293 290 285 283 285 286 284 283 285 291 300 307 310 311
341 343 345 346 348 350 351 352 351 350 348 346 346 346 346 345 344 343 344 345 346 347 348 348 349 348 346 344 342 339 335 332 328 325 324 324 321 320 322 324 325 325 325 327 329 328 326 326 326 324 322 319 315 310 305 302 301 300 294 287 285 285 288 290 285 274 273 283 290 292 293 294 295 297 295 287 282 282 281 278 279 287 298 307 324 341 341
335 337 339 341 343 345 346 348 349 349 348 346 344 343 343 343 342 341 341 342 343 344 344 344 345 345 344 343 342 340 338 335 331 325 323 323 321 320 321 323 325 325 325 327 330 330 328 327 327 325 322 319 317 314 310 304 299 296 295 296 299 300 297 291 283 287 294 295 291 290 291 293 294 294 292 288 284 280 276 275 280 292 301 317 345 357 349
328 330 333 335 337 338 340 342 345 347 347 346 345 343 341 341 341 339 337 338 339 340 341 341 341 341 342 342 341 339 337 336 332 326 324 323 322 321 322 323 324 325 326 327 330 332 330 328 327 326 323 321 319 313 304 294 290 297 307 309 304 300 299 298 297 295 293 291 291 292 295 296 294 293 293 291 287 281 275 276 287 307 323 348 1 356 352
322 324 326 328 330 332 334 336 339 342 344 344 344 343 341 340 339 337 336 335 335 336 337 337 337 337 338 338 337 336 336 335 333 329 326 324 322 321 321 322 323 325 326 328 331 332 330 329 329 327 325 325 320 305 288 280 288 305 315 313 301 292 294 302 304 299 293 293 295 296 297 297 299 311 321 311 287 270 272 277 307 7 12 16 8 359 4
316 318 320 322 324 326 328 330 333 336 338 340 341 342 342 340 338 335 334 333 331 331 332 333 333 333 333 333 334 334 334 334 334 331 328 325 323 320 320 321 324 325 326 328 331 332 330 330 330 328 327 326 317 289 262 258 281 298 306 305 296 294 298 302 304 298 291 298 320 331 322 317 349 15 11 356 314 280 273 250 90 64 52 35 17 16 40
310 312 314 316 318 320 323 325 326 329 333 335 337 338 339 340 338 336 333 332 330 329 330 330 330 329 330 330 331 331 332 332 332 331 329 326 323 321 319 320 323 325 325 327 331 332 331 331 331 329 330 328 312 264 232 240 270 285 292 292 303 317 317 312 315 310 293 302 359 5 352 358 18 11 6 1 348 326 253 150 115 82 61 30 24 59 87
305 306 308 310 313 315 317 319 321 324 326 329 331 333 335 337 338 336 333 332 330 328 327 327 326 326 326 327 327 328 328 329 330 331 330 327 324 321 319 321 324 325 325 327 330 332 331 331 331 331 331 327 302 241 218 230 252 261 266 284 314 344 346 342 357 16 22 19 14 7 5 22 24 10 359 354 351 32 152 139 88 76 72 46 71 95 100
300 302 304 305 307 310 312 314 316 318 320 322 325 328 330 332 334 334 333 331 329 327 324 323 323 323 323 324 324 325 325 327 328 329 329 328 326 323 320 321 323 325 324 325 328 330 331 331 331 331 330 324 287 226 216 226 235 230 232 258 293 352 3 2 16 33 38 34 26 17 11 17 21 11 356 349 66 130 127 95 50 62 100 134 119 107 101
297 298 300 301 303 305 307 309 311 312 314 317 320 322 324 326 329 330 330 329 328 326 323 321 320 320 320 321 321 321 322 324 326 326 327 328 327 324 320 319 321 323 323 323 326 328 330 331 332 331 329 322 281 224 216 223 224 217 221 239 258 310 346 351 1 22 29 27 18 8 2 5 10 8 5 80 113 115 115 109 115 130 136 132 121 108 100
294 295 296 297 299 300 302 304 306 307 309 311 314 316 319 320 322 325 327 327 327 326 324 321 318 317 316 317 317 317 318 321 323 324 325 326 326 323 319 317 318 320 321 322 323 326 329 330 331 331 329 321 282 227 218 220 219 214 221 233 239 249 276 290 301 342 7 14 7 354 350 354 360 6 110 123 116 118 131 140 137 130 124 119 113 107 100
292 292 293 294 295 296 298 300 302 303 304 306 309 311 314 315 317 320 323 324 325 325 324 321 318 315 314 314 315 315 315 318 320 321 322 324 324 322 318 315 315 318 319 319 321 324 327 328 330 330 329 322 289 234 220 220 217 214 219 226 224 223 230 231 230 259 296 329 350 343 339 354 26 110 137 129 118 114 113 110 105 103 104 109 112 112 109
290 291 291 291 291 292 294 295 297 298 299 302 304 306 309 310 312 315 318 320 322 323 323 321 318 315 312 311 311 312 312 314 316 317 319 321 323 321 317 313 312 315 317 317 319 322 325 326 328 329 330 324 298 245 224 221 218 215 218 221 215 215 231 244 239 225 229 239 261 289 321 17 63 111 128 123 113 103 94 90 89 92 100 117 126 123 123
290 289 289 288 289 289 290 292 293 294 295 297 300 302 305 307 309 312 315 317 318 320 321 321 319 315 311 308 307 307 308 310 312 314 315 318 320 321 318 313 311 312 314 315 316 319 322 325 326 326 328 326 308 260 230 223 220 218 218 219 214 211 227 247 250 231 214 221 246 257 261 342 73 99 109 107 102 97 92 90 91 96 111 145 178 201 172
291 290 289 288 288 288 288 289 290 290 291 292 295 297 300 303 305 307 310 312 314 316 318 318 318 315 312 309 306 305 305 307 310 311 313 315 318 319 317 312 309 310 311 312 313 315 319 322 323 322 323 324 314 278 239 227 224 222 220 220 219 216 222 233 240 238 229 222 222 225 221 198 125 115 116 110 102 97 96 99 103 110 126 146 170 190 184
Height
5666 5666 5665 5665 5664 5664 5663 5663 5663 5662 5661 5661 5661 5661 5661 5661 5660 5660 5662 5662 5662 5663 5664 5664 5666 5667 5667 5667 5668 5669 5670 5670 5669 5671 5673 5674 5675 5675 5676 5678 5678 5678 5679 5679 5680 5680 5680 5681 5682 5682 5682 5680 5678 5679 5682 5683 5683 5684 5685 5683 5683 5686 5686 5686 5687 5687 5688 5689 5688 5688 5689 5690 5690 5690 5690 5691 5691 5691 5690 5690 5690 5690 5691 5691 5691 5691 5689
5662 5662 5661 5661 5660 5660 5659 5659 5659 5659 5658 5657 5657 5657 5658 5658 5657 5657 5658 5658 5658 5659 5660 5660 5662 5663 5662 5663 5664 5664 5665 5665 5666 5667 5667 5668 5669 5670 5671 5673 5673 5674 5674 5674 5677 5676 5675 5677 5678 5678 5677 5674 5674 5677 5678 5678 5678 5678 5679 5679 5679 5681 5681 5681 5682 5683 5683 5685 5685 5684 5684 5684 5684 5685 5686 5686 5686 5686 5686 5686 5686 5685 5687 5688 5687 5687 5686
5658 5657 5657 5656 5656 5655 5655 5655 5655 5655 5654 5654 5653 5653 5653 5654 5654 5653 5654 5654 5654 5655 5656 5657 5658 5657 5658 5659 5660 5659 5660 5661 5662 5662 5662 5663 5664 5665 5666 5667 5667 5669 5669 5669 5672 5672 5671 5672 5673 5673 5672 5670 5670 5673 5674 5674 5673 5673 5675 5675 5674 5676 5676 5676 5677 5678 5678 5681 5682 5680 5680 5679 5678 5680 5680 5679 5680 5682 5682 5682 5682 5681 5683 5684 5682 5683 5683
5653 5653 5652 5652 5652 5651 5651 5650 5650 5651 5650 5650 5650 5649 5649 5649 5649 5650 5651 5651 5650 5651 5651 5653 5653 5652 5653 5655 5655 5655 5656 5655 5656 5658 5657 5657 5659 5660 5660 5661 5662 5664 5664 5664 5666 5667 5666 5667 5667 5667 5667 5666 5666 5668 5669 5668 5667 5668 5670 5670 5669 5670 5671 5671 5671 5672 5673 5675 5676 5675 5675 5674 5674 5675 5675 5675 5675 5676 5676 5676 5676 5677 5678 5677 5678 5680 5679
5649 5649 5648 5647 5647 5647 5646 5646 5646 5646 5646 5646 5646 5645 5645 5645 5645 5646 5646 5647 5646 5646 5647 5648 5648 5648 5650 5650 5650 5651 5652 5650 5651 5653 5652 5652 5654 5655 5655 5656 5657 5658 5658 5658 5660 5661 5661 5661 5662 5662 5662 5662 5661 5662 5664 5663 5662 5664 5664 5664 5664 5664 5664 5666 5666 5666 5667 5668 5669 5669 5669 5668 5668 5669 5670 5670 5670 5669 5669 5669 5671 5671 5670 5670 5674 5675 5674
5646 5645 5644 5643 5642 5642 5642 5641 5641 5641 5641 5642 5641 5641 5641 5641 5641 5641 5642 5642 5641 5642 5643 5644 5644 5644 5645 5645 5644 5646 5647 5645 5645 5648 5648 5647 5649 5650 5650 5651 5651 5652 5653 5653 5654 5656 5656 5656 5657 5657 5657 5658 5656 5657 5658 5657 5657 5659 5658 5657 5659 5659 5659 5660 5661 5660 5661 5661 5662 5663 5663 5662 5662 5662 5663 5664 5663 5662 5662 5663 5665 5665 5663 5664 5667 5667 5668
5642 5641 5640 5639 5638 5637 5637 5637 5636 5636 5636 5636 5637 5636 5637 5636 5636 5637 5637 5637 5637 5637 5639 5639 5639 5640 5640 5640 5640 5641 5642 5641 5641 5642 5643 5643 5644 5645 5645 5646 5646 5646 5647 5648 5649 5650 5650 5650 5652 5652 5651 5652 5652 5652 5652 5651 5652 5653 5653 5652 5653 5653 5654 5654 5654 5654 5655 5656 5656 5657 5656 5655 5655 5655 5655 5656 5656 5656 5656 5656 5657 5658 5658 5658 5659 5659 5660
5637 5636 5635 5635 5634 5633 5633 5632 5632 5632 5632 5631 5632 5632 5632 5632 5632 5632 5632 5632 5632 5633 5633 5634 5635 5635 5635 5635 5636 5636 5637 5637 5636 5637 5638 5639 5639 5640 5641 5641 5641 5641 5642 5643 5642 5643 5644 5644 5645 5646 5646 5647 5648 5648 5648 5647 5647 5648 5649 5648 5647 5647 5648 5648 5648 5647 5648 5649 5650 5650 5650 5648 5647 5648 5649 5649 5650 5650 5650 5650 5651 5651 5652 5652 5652 5651 5653
5632 5631 5630 5630 5629 5628 5628 5628 5627 5627 5627 5627 5627 5627 5627 5627 5627 5627 5627 5627 5628 5628 5628 5629 5630 5629 5629 5630 5631 5632 5632 5632 5632 5632 5633 5634 5634 5635 5636 5636 5636 5638 5638 5636 5636 5638 5639 5639 5639 5641 5642 5642 5643 5643 5643 5643 5643 5643 5644 5644 5643 5642 5642 5642 5641 5640 5641 5643 5644 5643 5641 5640 5641 5642 5643 5643 5643 5644 5645 5645 5645 5645 5645 5645 5645 5645 5647
5627 5626 5625 5624 5624 5623 5623 5623 5622 5623 5623 5623 5623 5623 5623 5623 5623 5623 5623 5623 5623 5623 5623 5624 5624 5623 5624 5625 5625 5626 5626 5626 5627 5628 5628 5629 5629 5630 5631 5631 5632 5633 5631 5629 5631 5634 5634 5634 5635 5635 5636 5636 5637 5637 5637 5638 5639 5639 5639 5638 5637 5637 5637 5637 5636 5635 5635 5637 5637 5635 5633 5633 5635 5637 5638 5637 5637 5638 5639 5638 5639 5639 5638 5638 5639 5640 5642
5622 5621 5620 5619 5618 5618 5618 5618 5617 5618 5618 5618 5618 5618 5618 5618 5618 5619 5619 5618 5618 5619 5618 5619 5619 5618 5619 5620 5620 5620 5621 5621 5622 5623 5622 5622 5623 5625 5625 5626 5627 5626 5625 5625 5627 5629 5629 5629 5630 5630 5630 5631 5631 5631 5631 5632 5632 5634 5634 5633 5633 5632 5631 5631 5630 5629 5629 5630 5630 5627 5626 5628 5631 5632 5631 5630 5630 5632 5632 5632 5633 5633 5632 5632 5632 5634 5635
5619 5617 5616 5614 5614 5613 5613 5613 5613 5613 5613 5613 5613 5613 5613 5614 5614 5614 5614 5614 5614 5614 5614 5614 5614 5614 5614 5615 5615 5615 5616 5616 5617 5617 5617 5617 5618 5619 5620 5620 5620 5620 5620 5621 5622 5623 5623 5623 5623 5624 5624 5624 5625 5625 5625 5625 5626 5627 5627 5628 5628 5626 5625 5625 5626 5625 5624 5624 5623 5620 5620 5623 5626 5625 5623 5623 5625 5626 5625 5626 5626 5626 5626 5626 5626 5626 5626
5618 5615 5613 5612 5611 5610 5609 5609 5608 5608 5608 5608 5608 5608 5609 5609 5609 5609 5609 5610 5610 5610 5610 5610 5610 5610 5610 5610 5610 5610 5611 5611 5611 5612 5612 5612 5613 5614 5614 5614 5614 5615 5616 5616 5616 5616 5617 5617 5617 5618 5618 5618 5619 5619 5619 5620 5620 5620 5621 5621 5621 5620 5620 5620 5620 5619 5619 5618 5616 5615 5615 5617 5619 5618 5616 5617 5619 5619 5618 5618 5619 5618 5619 5620 5619 5619 5619
5616 5614 5612 5610 5609 5608 5607 5606 5605 5605 5604 5604 5604 5604 5604 5604 5604 5605 5605 5605 5605 5605 5605 5605 5605 5605 5605 5605 5606 5606 5606 5607 5607 5607 5607 5607 5608 5608 5609 5609 5609 5610 5610 5610 5610 5611 5611 5612 5612 5612 5613 5613 5613 5613 5614 5614 5614 5613 5615 5615 5615 5615 5615 5614 5613 5613 5613 5612 5610 5610 5610 5611 5611 5611 5610 5611 5611 5611 5610 5610 5610 5610 5611 5611 5612 5613 5612
5615 5613 5611 5609 5607 5606 5605 5604 5603 5603 5602 5601 5601 5600 5600 5600 5600 5600 5600 5600 5600 5600 5600 5600 5600 5601 5601 5601 5601 5601 5601 5602 5602 5602 5602 5603 5603 5603 5604 5604 5604 5605 5605 5605 5605 5606 5606 5606 5607 5607 5608 5608 5608 5609 5609 5608 5607 5607 5608 5610 5609 5609 5609 5608 5607 5607 5606 5605 5605 5604 5604 5604 5604 5605 5604 5604 5604 5603 5603 5602 5602 5603 5603 5604 5605 5606 5605
5614 5612 5610 5608 5607 5605 5604 5602 5602 5601 5600 5599 5599 5598 5597 5597 5597 5596 5596 5596 5596 5596 5596 5596 5596 5596 5596 5596 5596 5596 5596 5597 5597 5597 5597 5597 5598 5599 5599 5599 5599 5600 5600 5600 5600 5600 5601 5601 5602 5602 5603 5603 5603 5603 5602 5602 5601 5600 5600 5603 5605 5604 5603 5602 5602 5601 5599 5599 5598 5598 5598 5598 5599 5599 5598 5598 5597 5597 5597 5596 5595 5596 5597 5596 5598 5599 5597
5614 5612 5610 5608 5606 5604 5603 5602 5600 5599 5598 5598 5597 5596 5595 5595 5594 5594 5593 5593 5593 5592 5592 5592 5592 5591 5591 5591 5591 5591 5591 5592 5592 5592 5591 5591 5593 5594 5594 5594 5594 5594 5595 5595 5595 5595 5595 5596 5596 5597 5598 5598 5597 5597 5597 5597 5596 5594 5593 5595 5597 5598 5597 5596 5595 5595 5594 5593 5593 5594 5592 5590 5592 5593 5592 5592 5591 5591 5591 5590 5588 5590 5590 5589 5590 5591 5590
5614 5612 5609 5607 5606 5604 5603 5601 5600 5598 5597 5596 5595 5595 5594 5593 5593 5592 5591 5591 5590 5590 5589 5588 5588 5587 5587 5587 5586 5586 5586 5586 5586 5587 5586 5585 5587 5588 5588 5588 5588 5588 5589 5589 5589 5589 5589 5590 5591 5591 5592 5593 5591 5590 5592 5592 5590 5590 5589 5589 5589 5590 5590 5590 5589 5589 5590 5589 5588 5589 5587 5583 5585 5587 5585 5585 5586 5586 5585 5583 5582 5583 5583 5582 5583 5584 5584
5614 5612 5610 5608 5606 5604 5602 5601 5599 5598 5596 5595 5594 5593 5592 5592 5591 5590 5589 5589 5588 5587 5586 5585 5585 5584 5583 5583 5582 5582 5582 5582 5582 5582 5581 5581 5582 5583 5582 5582 5583 5583 5583 5583 5584 5584 5584 5585 5587 5586 5586 5587 5585 5584 5585 5585 5585 5585 5585 5584 5585 5585 5584 5584 5584 5585 5585 5584 5582 5581 5580 5578 5579 5580 5579 5580 5581 5579 5578 5577 5576 5575 5575 5575 5576 5577 5577
5614 5612 5610 5608 5606 5604 5602 5600 5599 5597 5596 5594 5593 5592 5591 5590 5589 5588 5587 5586 5585 5584 5583 5582 5581 5580 5579 5579 5578 5578 5577 5577 5577 5577 5576 5576 5577 5578 5577 5577 5577 5578 5578 5578 5578 5578 5579 5580 5581 5581 5580 5580 5579 5578 5579 5579 5579 5579 5579 5579 5580 5578 5577 5578 5579 5578 5578 5578 5577 5575 5575 5573 5573 5573 5572 5573 5574 5571 5570 5571 5570 5569 5569 5569 5570 5570 5569
5613 5611 5609 5608 5606 5604 5602 5600 5598 5597 5595 5593 5592 5590 5589 5588 5587 5585 5584 5583 5582 5581 5580 5579 5577 5576 5575 5574 5574 5573 5573 5572 5572 5572 5572 5572 5573 5573 5572 5572 5573 5573 5573 5573 5573 5573 5574 5575 5575 5575 5575 5575 5573 5573 5573 5573 5573 5573 5573 5574 5573 5571 5572 5573 5573 5571 5571 5572 5571 5569 5568 5567 5567 5567 5565 5565 5565 5564 5564 5565 5565 5564 5563 5563 5562 5562 5561
5613 5611 5609 5607 5605 5603 5601 5599 5597 5595 5594 5592 5590 5589 5587 5586 5584 5583 5582 5581 5580 5578 5576 5575 5573 5572 5571 5570 5569 5569 5568 5568 5568 5568 5568 5568 5568 5568 5568 5568 5569 5569 5569 5569 5569 5568 5570 5570 5569 5569 5570 5570 5569 5568 5568 5568 5568 5567 5567 5568 5567 5566 5566 5567 5566 5564 5564 5566 5565 5563 5562 5561 5560 5560 5559 5557 5557 5557 5557 5558 5559 5557 5557 5556 5555 5554 5554
5613 5611 5609 5607 5605 5603 5601 5599 5597 5594 5592 5590 5588 5587 5586 5584 5583 5582 5580 5578 5577 5575 5573 5572 5570 5569 5568 5566 5566 5565 5564 5564 5564 5564 5564 5564 5564 5565 5565 5565 5565 5565 5565 5565 5565 5565 5565 5565 5565 5565 5565 5564 5564 5564 5563 5563 5563 5562 5562 5563 5562 5561 5560 5560 5559 5559 5559 5558 5558 5557 5556 5555 5554 5553 5552 5551 5551 5551 5551 5551 5550 5549 5549 5549 5548 5547 5547
5613 5611 5609 5606 5604 5602 5600 5598 5596 5593 5591 5589 5587 5585 5584 5583 5581 5580 5578 5576 5574 5572 5571 5569 5568 5566 5565 5564 5563 5562 5561 5561 5561 5561 5561 5561 5561 5561 5562 5561 5562 5562 5562 5562 5562 5561 5561 5561 5560 5561 5560 5559 5559 5559 5558 5559 5558 5557 5557 5557 5555 5554 5555 5554 5554 5554 5553 5552 5552 5550 5548 5547 5547 5547 5547 5546 5546 5544 5543 5542 5541 5540 5540 5540 5541 5541 5540
5613 5610 5608 5606 5603 5601 5599 5597 5595 5592 5590 5588 5586 5584 5583 5581 5580 5578 5576 5574 5572 5571 5569 5568 5566 5564 5563 5562 5560 5559 5559 5558 5558 5558 5558 5558 5558 5558 5559 5559 5559 5558 5558 5558 5558 5558 5557 5557 5557 5556 5556 5555 5555 5554 5553 5554 5553 5552 5553 5552 5550 5549 5550 5549 5547 5547 5546 5546 5546 5544 5541 5541 5541 5542 5542 5541 5539 5536 5535 5534 5534 5534 5534 5533 5533 5533 5533
5612 5610 5607 5605 5603 5600 5598 5596 5594 5592 5589 5587 5585 5583 5581 5580 5578 5577 5574 5572 5571 5569 5568 5566 5565 5563 5562 5560 5559 5558 5557 5556 5556 5556 5556 5556 5556 5556 5556 5556 5556 5556 5555 5555 5555 5555 5554 5553 5553 5552 5552 5552 5551 5550 5549 5549 5549 5547 5547 5547 5544 5543 5544 5542 5541 5540 5540 5540 5539 5536 5535 5535 5535 5535 5534 5533 5531 5530 5529 5528 5528 5528 5528 5527 5526 5526 5526
5612 5609 5607 5605 5602 5600 5598 5595 5593 5591 5589 5587 5584 5582 5580 5579 5577 5575 5573 5571 5570 5569 5567 5565 5564 5562 5561 5560 5558 5557 5556 5555 5555 5554 5554 5554 5554 5554 5554 5554 5553 5553 5553 5553 5552 5552 5551 5550 5549 5549 5548 5548 5547 5546 5545 5544 5544 5543 5542 5541 5539 5538 5537 5535 5534 5534 5534 5534 5531 5529 5528 5529 5529 5528 5527 5525 5524 5523 5523 5522 5521 5521 5520 5519 5519 5518 5518
5612 5609 5607 5604 5602 5600 5597 5595 5593 5591 5589 5586 5584 5582 5580 5578 5576 5575 5573 5571 5569 5568 5566 5564 5563 5561 5560 5559 5558 5557 5556 5555 5554 5554 5553 5553 5553 5552 5552 5552 5551 5551 5551 5550 5549 5549 5548 5547 5546 5545 5545 5544 5543 5542 5541 5540 5539 5538 5537 5535 5533 5532 5531 5529 5528 5527 5527 5526 5525 5523 5522 5522 5521 5520 5519 5518 5517 5516 5516 5515 5515 5514 5513 5512 5512 5511 5511
5611 5609 5607 5604 5602 5600 5597 5595 5593 5591 5588 5586 5584 5581 5579 5578 5576 5574 5572 5570 5568 5567 5565 5564 5562 5561 5560 5558 5557 5556 5555 5554 5553 5553 5552 5552 5552 5551 5550 5550 5550 5549 5549 5548 5547 5546 5545 5544 5543 5542 5540 5539 5539 5538 5537 5536 5535 5533 5532 5530 5528 5526 5525 5523 5522 5521 5520 5519 5518 5516 5516 5515 5514 5513 5512 5511 5510 5509 5509 5508 5507 5507 5506 5506 5505 5505 5503
5611 5609 5606 5604 5602 5599 5597 5595 5592 5590 5588 5586 5584 5582 5580 5578 5575 5573 5571 5569 5567 5566 5564 5563 5562 5560 5559 5558 5557 5556 5555 5553 5553 5552 5551 5551 5550 5550 5549 5548 5547 5547 5546 5545 5544 5543 5542 5540 5540 5539 5537 5535 5534 5533 5532 5531 5530 5529 5527 5524 5523 5522 5520 5517 5516 5515 5514 5513 5511 5510 5509 5508 5507 5506 5505 5504 5503 5502 5502 5502 5501 5501 5500 5499 5499 5498 5496
5611 5608 5606 5604 5601 5599 5596 5594 5592 5590 5588 5586 5584 5581 5579 5577 5575 5572 5570 5568 5566 5565 5563 5562 5561 5559 5558 5557 5556 5555 5554 5553 5552 5551 5550 5549 5549 5548 5547 5546 5545 5544 5543 5542 5541 5540 5539 5537 5536 5535 5534 5532 5530 5528 5527 5526 5525 5524 5522 5519 5518 5517 5515 5512 5510 5509 5508 5507 5505 5504 5503 5502 5501 5500 5499 5498 5497 5496 5496 5496 5496 5496 5495 5494 5493 5492 5491
5610 5608 5606 5603 5601 5598 5596 5594 5591 5589 5587 5585 5583 5580 5578 5576 5574 5572 5570 5568 5566 5564 5562 5561 5559 5558 5557 5556 5555 5554 5553 5552 5551 5550 5549 5548 5547 5547 5546 5545 5543 5542 5541 5540 5539 5537 5535 5534 5533 5531 5530 5528 5526 5524 5523 5521 5520 5519 5517 5515 5513 5512 5509 5508 5506 5504 5503 5501 5500 5499 5499 5497 5496 5495 5495 5494 5493 5492 5493 5493 5493 5492 5491 5491 5490 5489 5487
5609 5607 5605 5602 5600 5598 5595 5593 5591 5589 5586 5584 5582 5580 5578 5576 5574 5571 5569 5567 5565 5563 5562 5560 5558 5557 5556 5555 5554 5553 5552 5551 5550 5549 5548 5547 5546 5545 5544 5543 5541 5540 5538 5537 5536 5534 5531 5530 5529 5527 5526 5524 5522 5520 5518 5517 5515 5513 5511 5509 5507 5505 5504 5502 5501 5499 5498 5497 5495 5495 5494 5493 5493 5492 5492 5492 5491 5490 5490 5490 5490 5489 5489 5488 5487 5485 5484
5608 5606 5604 5602 5599 5597 5595 5592 5590 5588 5585 5583 5581 5579 5577 5575 5573 5571 5569 5567 5565 5563 5561 5559 5557 5556 5555 5554 5552 5551 5550 5549 5548 5546 5546 5545 5544 5543 5541 5540 5539 5537 5535 5534 5533 5531 5529 5527 5525 5523 5521 5520 5517 5515 5514 5512 5509 5508 5506 5504 5501 5500 5499 5497 5496 5495 5494 5493 5492 5492 5491 5491 5491 5491 5490 5490 5489 5489 5488 5488 5488 5487 5486 5485 5484 5483 5481
5608 5605 5603 5601 5599 5596 5594 5591 5589 5587 5585 5583 5581 5579 5577 5574 5572 5570 5568 5566 5564 5562 5560 5558 5557 5555 5553 5552 5551 5549 5548 5547 5546 5545 5544 5542 5541 5540 5539 5537 5536 5535 5533 5531 5529 5528 5526 5524 5522 5519 5517 5515 5513 5511 5509 5507 5505 5503 5501 5499 5497 5496 5495 5494 5493 5492 5491 5490 5490 5490 5489 5489 5489 5489 5488 5488 5487 5487 5487 5486 5485 5484 5483 5482 5481 5480 5479
5607 5604 5602 5600 5597 5595 5593 5591 5588 5586 5584 5582 5580 5577 5575 5573 5571 5569 5568 5566 5563 5561 5560 5558 5556 5554 5552 5551 5549 5548 5546 5545 5544 5543 5542 5540 5539 5538 5536 5534 5533 5531 5530 5528 5526 5524 5523 5521 5519 5516 5514 5511 5509 5507 5505 5504 5501 5499 5497 5495 5494 5493 5492 5492 5491 5490 5489 5489 5488 5488 5488 5488 5488 5487 5487 5486 5485 5485 5484 5484 5483 5482 5481 5480 5479 5478 5477
5606 5604 5601 5599 5597 5595 5592 5590 5587 5585 5583 5580 5578 5576 5574 5572 5570 5568 5567 5565 5563 5561 5559 5557 5555 5553 5552 5550 5548 5547 5545 5543 5542 5541 5540 5538 5537 5535 5534 5532 5530 5528 5527 5525 5523 5521 5519 5517 5515 5512 5510 5508 5505 5502 5501 5499 5497 5495 5494 5493 5492 5491 5490 5490 5489 5489 5488 5487 5487 5487 5487 5486 5486 5485 5485 5484 5483 5483 5482 5481 5481 5480 5479 5478 5477 5476 5475
5604 5602 5600 5598 5596 5594 5591 5589 5586 5584 5581 5579 5577 5575 5573 5571 5569 5567 5565 5564 5562 5560 5558 5556 5554 5552 5550 5549 5547 5545 5543 5542 5540 5539 5537 5536 5534 5533 5531 5529 5528 5526 5524 5522 5520 5518 5516 5514 5512 5509 5506 5504 5501 5499 5497 5496 5494 5492 5491 5491 5490 5489 5489 5488 5488 5487 5487 5487 5486 5485 5485 5485 5484 5483 5483 5482 5482 5481 5480 5480 5479 5478 5478 5477 5476 5475 5474
5603 5601 5599 5597 5594 5592 5590 5587 5585 5583 5580 5578 5576 5574 5572 5570 5568 5566 5564 5562 5560 5558 5556 5555 5553 5551 5549 5547 5546 5544 5542 5540 5538 5536 5535 5534 5532 5530 5529 5527 5525 5523 5522 5520 5518 5516 5513 5511 5508 5506 5503 5500 5498 5497 5495 5493 5491 5491 5490 5489 5489 5488 5488 5487 5487 5486 5486 5486 5485 5484 5484 5483 5482 5482 5481 5481 5480 5480 5479 5478 5478 5477 5477 5476 5475 5474 5473
5601 5599 5597 5595 5593 5591 5589 5587 5584 5582 5579 5577 5575 5573 5571 5568 5566 5564 5562 5560 5559 5557 5555 5553 5551 5549 5548 5546 5544 5542 5540 5538 5537 5535 5533 5531 5530 5528 5526 5525 5523 5521 5519 5517 5515 5513 5511 5508 5506 5503 5500 5497 5496 5494 5492 5491 5490 5489 5489 5488 5488 5487 5487 5486 5486 5485 5485 5485 5484 5483 5483 5482 5481 5480 5480 5479 5479 5478 5478 5478 5477 5476 5476 5475 5474 5474 5473
5599 5597 5595 5593 5591 5589 5587 5585 5583 5581 5578 5576 5574 5571 5569 5567 5565 5563 5560 5558 5557 5555 5553 5551 5549 5547 5545 5544 5542 5540 5538 5537 5535 5533 5531 5529 5527 5525 5524 5522 5521 5519 5517 5515 5513 5511 5508 5506 5503 5500 5498 5495 5493 5491 5490 5490 5489 5489 5488 5488 5487 5487 5486 5486 5485 5485 5484 5483 5483 5482 5482 5481 5480 5480 5479 5479 5478 5478 5477 5477 5477 5476 5475 5475 5474 5474 5473
5597 5595 5593 5591 5589 5588 5586 5583 5581 5579 5577 5575 5572 5570 5568 5565 5563 5561 5559 5557 5555 5553 5551 5549 5547 5545 5544 5542 5540 5538 5536 5535 5533 5531 5529 5527 5525 5523 5521 5520 5518 5517 5515 5513 5511 5509 5506 5503 5501 5498 5495 5493 5491 5490 5489 5489 5489 5488 5488 5487 5487 5486 5486 5485 5485 5484 5484 5483 5482 5481 5481 5480 5480 5479 5479 5478 5478 5477 5477 5477 5476 5476 5475 5475 5474 5473 5472
5594 5593 5591 5589 5587 5585 5583 5581 5579 5577 5575 5573 5570 5568 5566 5564 5561 5559 5557 5555 5553 5551 5550 5548 5546 5544 5542 5540 5538 5536 5534 5532 5530 5528 5526 5525 5523 5521 5519 5517 5516 5514 5512 5510 5509 5506 5504 5501 5499 5496 5493 5491 5490 5489 5488 5488 5488 5488 5487 5487 5486 5486 5485 5484 5484 5484 5483 5482 5481 5481 5480 5480 5479 5479 5479 5478 5478 5477 5477 5477 5476 5476 5475 5475 5474 5474 5473
5591 5589 5588 5586 5584 5582 5580 5579 5577 5575 5573 5571 5568 5566 5564 5562 5559 5557 5555 5553 5551 5548 5547 5545 5543 5541 5539 5538 5536 5534 5532 5530 5528 5527 5524 5522 5521 5519 5517 5515 5514 5512 5510 5508 5506 5504 5502 5499 5497 5494 5491 5489 5488 5488 5487 5488 5488 5487 5487 5487 5486 5485 5485 5484 5484 5483 5482 5482 5481 5481 5480 5480 5479 5479 5479 5478 5477 5477 5477 5477 5476 5476 5475 5475 5474 5474 5473
5587 5585 5584 5583 5581 5580 5578 5576 5574 5572 5570 5569 5566 5564 5562 5559 5557 5555 5553 5551 5549 5546 5544 5542 5541 5539 5537 5535 5533 5532 5530 5528 5526 5524 5522 5520 5518 5516 5514 5513 5511 5509 5507 5506 5504 5502 5499 5497 5495 5492 5490 5488 5487 5487 5487 5487 5487 5487 5487 5486 5486 5485 5485 5484 5484 5483 5482 5482 5481 5481 5480 5480 5479 5479 5478 5478 5477 5477 5477 5477 5476 5476 5476 5475 5475 5475 5474
5583 5581 5580 5579 5578 5576 5575 5572 5570 5569 5567 5566 5564 5562 5560 5558 5555 5553 5550 5548 5547 5545 5542 5540 5538 5537 5535 5533 5531 5529 5527 5525 5523 5521 5519 5518 5516 5514 5512 5510 5509 5507 5505 5503 5502 5500 5498 5495 5493 5490 5488 5487 5486 5486 5486 5486 5487 5487 5486 5486 5485 5485 5484 5484 5484 5483 5482 5482 5481 5481 5480 5480 5480 5479 5478 5478 5477 5477 5477 5477 5477 5477 5476 5476 5476 5476 5475
5579 5577 5575 5574 5573 5572 5571 5569 5567 5565 5563 5562 5561 5559 5557 5555 5553 5551 5549 5546 5544 5542 5540 5538 5536 5534 5532 5530 5528 5526 5524 5523 5521 5519 5517 5515 5513 5511 5509 5508 5506 5505 5503 5501 5500 5498 5496 5493 5491 5489 5487 5486 5485 5485 5485 5486 5486 5486 5486 5485 5485 5485 5484 5484 5484 5483 5483 5482 5482 5481 5481 5480 5480 5479 5478 5478 5477 5477 5478 5478 5478 5477 5477 5477 5477 5477 5477
5574 5573 5571 5569 5568 5567 5567 5566 5564 5561 5560 5558 5558 5556 5554 5552 5550 5548 5546 5544 5541 5539 5537 5535 5533 5531 5529 5528 5526 5524 5521 5520 5518 5516 5514 5513 5511 5509 5507 5505 5504 5503 5501 5499 5497 5496 5494 5492 5490 5487 5486 5484 5484 5484 5484 5485 5485 5485 5485 5485 5485 5484 5484 5484 5484 5483 5483 5483 5482 5482 5481 5480 5480 5479 5479 5478 5478 5478 5478 5479 5478 5478 5478 5478 5478 5478 5478
5569 5568 5566 5564 5563 5562 5561 5561 5560 5558 5555 5554 5553 5552 5551 5549 5547 5545 5543 5541 5538 5536 5534 5533 5530 5528 5526 5524 5523 5521 5519 5517 5515 5513 5512 5510 5508 5507 5505 5503 5501 5500 5499 5497 5495 5494 5492 5490 5488 5486 5484 5483 5482 5482 5482 5483 5484 5484 5484 5484 5484 5484 5484 5484 5484 5484 5484 5483 5483 5482 5482 5481 5480 5480 5479 5479 5479 5479 5479 5479 5479 5479 5479 5479 5479 5479 5479
5564 5563 5561 5559 5558 5557 5556 5556 5555 5554 5551 5549 5548 5547 5547 5545 5543 5542 5540 5538 5535 5533 5531 5529 5527 5526 5524 5521 5520 5518 5516 5515 5513 5511 5509 5508 5506 5504 5502 5501 5499 5498 5496 5495 5493 5492 5490 5488 5486 5485 5483 5481 5480 5480 5481 5482 5482 5483 5483 5483 5483 5483 5483 5483 5484 5484 5484 5483 5483 5483 5482 5482 5481 5481 5480 5480 5479 5480 5480 5480 5480 5480 5480 5480 5480 5480 5480
5558 5557 5556 5554 5553 5552 5551 5550 5550 5549 5547 5545 5543 5542 5541 5540 5539 5537 5536 5534 5531 5529 5527 5525 5524 5522 5520 5519 5517 5515 5513 5512 5510 5508 5506 5505 5503 5501 5500 5498 5496 5495 5494 5492 5490 5489 5488 5486 5484 5483 5481 5480 5479 5478 5479 5480 5480 5481 5481 5481 5481 5481 5482 5482 5483 5483 5483 5483 5483 5483 5483 5482 5482 5481 5481 5480 5480 5481 5481 5481 5481 5481 5481 5481 5481 5481 5481
5552 5551 5550 5548 5547 5546 5545 5545 5544 5543 5542 5541 5539 5538 5537 5536 5534 5533 5531 5530 5528 5526 5524 5522 5520 5518 5516 5515 5513 5511 5510 5508 5507 5505 5503 5502 5500 5498 5497 5495 5494 5492 5491 5490 5488 5487 5485 5484 5482 5481 5480 5478 5477 5477 5477 5477 5478 5479 5480 5480 5480 5480 5480 5481 5481 5482 5483 5483 5483 5483 5483 5482 5482 5482 5482 5481 5481 5481 5481 5482 5482 5482 5482 5482 5482 5482 5482